DW9799 Weather Reports


Display with metric or nautical units.
time (UTC)temp
F
wind
direction
speed
MPH
gust
MPH
rain 1hr
in
rain 24hr
in
rain mn
in
humidity
%
barometer
mb
20180816003928 78 43 1.0 2.0 0.00 0.00 0.00 68 1009.8
20180816002927 79 43 1.0 2.0 0.00 0.00 0.00 67 1009.8
20180816001926 80 43 1.0 2.0 0.00 0.00 0.00 65 1009.8
20180816000925 81 43 3.0 5.0 0.00 0.00 0.00 63 1009.8
20180815235925 81 42 2.0 5.0 0.00 0.00 0.00 62 1009.8
20180815234924 82 40 4.0 8.0 0.00 0.00 0.00 60 1009.8
20180815233923 82 29 7.0 8.0 0.00 0.00 0.00 59 1009.8
20180815232922 82 39 2.0 7.0 0.00 0.00 0.00 60 1010.2
20180815231921 83 22 3.0 9.0 0.00 0.00 0.00 59 1010.2
20180815230921 83 17 0.0 5.0 0.00 0.00 0.00 61 1009.8
20180815225919 83 15 1.0 4.0 0.00 0.00 0.00 59 1009.8
20180815224919 83 13 2.0 6.0 0.00 0.00 0.00 60 1009.8
20180815223918 83 2 4.0 7.0 0.00 0.00 0.00 58 1010.2
20180815222917 83 349 1.0 4.0 0.00 0.00 0.00 60 1010.2
20180815221917 83 351 5.0 9.0 0.00 0.00 0.00 57 1009.8
20180815220916 83 1 5.0 7.0 0.00 0.00 0.00 56 1009.8
20180815215915 83 57 3.0 7.0 0.00 0.00 0.00 54 1009.8
20180815214914 83 38 6.0 9.0 0.00 0.00 0.00 55 1010.2
20180815213913 83 350 5.0 7.0 0.00 0.00 0.00 56 1010.2
20180815212911 83 332 2.0 7.0 0.00 0.00 0.00 55 1010.2
20180815211910 83 331 3.0 7.0 0.00 0.00 0.00 59 1010.2
20180815210909 83 351 6.0 12.0 0.00 0.00 0.00 56 1010.2
20180815205908 83 14 8.0 10.0 0.00 0.00 0.00 56 1010.2
20180815204906 82 49 4.0 7.0 0.00 0.00 0.00 60 1010.2
20180815203906 82 14 2.0 8.0 0.00 0.00 0.00 56 1010.5
20180815202905 82 352 3.0 11.0 0.00 0.00 0.00 59 1010.5
20180815201904 82 319 4.0 8.0 0.00 0.00 0.00 57 1010.5
20180815200903 81 43 5.0 8.0 0.00 0.00 0.00 60 1010.5
20180815195902 81 30 4.0 10.0 0.00 0.00 0.00 59 1010.5
20180815194901 81 1 6.0 12.0 0.00 0.00 0.00 60 1010.5
20180815193900 81 29 3.0 10.0 0.00 0.00 0.00 59 1010.8
20180815192858 80 51 6.0 14.0 0.00 0.00 0.00 59 1010.8
20180815191858 80 6 6.0 13.0 0.00 0.00 0.00 60 1010.8
20180815190857 80 6 8.0 13.0 0.00 0.00 0.00 63 1010.8
20180815185856 79 357 8.0 11.0 0.00 0.00 0.00 63 1011.2
20180815184855 79 14 7.0 14.0 0.00 0.00 0.00 60 1011.2
20180815183854 79 18 9.0 12.0 0.00 0.00 0.00 62 1011.2
20180815182853 79 30 9.0 13.0 0.00 0.00 0.00 62 1011.2
20180815181853 79 23 8.0 13.0 0.00 0.00 0.00 61 1011.2
20180815180852 79 11 6.0 13.0 0.00 0.00 0.00 63 1011.2
20180815175851 79 39 6.0 11.0 0.00 0.00 0.00 64 1011.2
20180815174850 78 359 7.0 12.0 0.00 0.00 0.00 63 1011.5
20180815173849 78 350 7.0 13.0 0.00 0.00 0.00 65 1011.5
20180815172848 78 344 8.0 13.0 0.00 0.00 0.00 66 1011.5
20180815171847 78 14 8.0 10.0 0.00 0.00 0.00 66 1011.5
20180815170846 77 33 7.0 12.0 0.00 0.00 0.00 64 1011.5
20180815165845 77 331 7.0 11.0 0.00 0.00 0.00 66 1011.5
20180815164844 77 351 7.0 15.0 0.00 0.00 0.00 67 1011.5
20180815163843 77 26 8.0 12.0 0.00 0.00 0.00 66 1011.5
20180815162842 77 344 8.0 11.0 0.00 0.00 0.00 66 1011.5
20180815161841 77 34 8.0 11.0 0.00 0.00 0.00 65 1011.5
20180815160840 77 20 8.0 10.0 0.00 0.00 0.00 67 1011.5
20180815155839 76 16 6.0 11.0 0.00 0.00 0.00 67 1011.5
20180815154839 76 7 6.0 8.0 0.00 0.00 0.00 69 1011.5
20180815153838 75 34 5.0 8.0 0.00 0.00 0.00 68 1011.5
20180815152837 75 13 8.0 10.0 0.00 0.00 0.00 68 1011.5
20180815151836 74 16 5.0 8.0 0.00 0.00 0.00 69 1011.5
20180815150835 74 38 4.0 9.0 0.00 0.00 0.00 71 1011.5
20180815145834 73 16 5.0 9.0 0.00 0.00 0.00 73 1011.5
20180815144834 73 339 5.0 7.0 0.00 0.00 0.00 71 1011.5
20180815143833 72 21 5.0 8.0 0.00 0.00 0.00 73 1011.9
20180815142832 71 3 5.0 7.0 0.00 0.00 0.00 75 1011.9
20180815141831 70 25 3.0 7.0 0.00 0.00 0.00 77 1011.9
20180815140830 69 29 4.0 8.0 0.00 0.00 0.00 79 1011.9
20180815135829 68 20 5.0 8.0 0.00 0.00 0.00 82 1011.9
20180815134828 67 358 4.0 7.0 0.00 0.00 0.00 84 1011.9
20180815133827 66 1 5.0 7.0 0.00 0.00 0.00 86 1011.9
20180815132827 65 347 4.0 6.0 0.00 0.00 0.00 88 1011.9
20180815131826 64 33 5.0 9.0 0.00 0.00 0.00 89 1011.5
20180815130825 64 26 7.0 9.0 0.00 0.00 0.00 92 1011.5
20180815125824 63 29 7.0 8.0 0.00 0.00 0.00 93 1011.2
20180815124823 62 24 6.0 9.0 0.00 0.00 0.00 93 1011.2
20180815123822 62 26 7.0 8.0 0.00 0.00 0.00 93 1011.2
20180815122821 62 23 6.0 7.0 0.00 0.00 0.00 93 1011.2
20180815121821 62 16 5.0 5.0 0.00 0.00 0.00 93 1010.8
20180815120820 62 16 5.0 6.0 0.00 0.00 0.00 92 1011.2
20180815115819 62 16 5.0 5.0 0.00 0.00 0.00 92 1010.8
20180815114818 62 19 2.0 7.0 0.00 0.00 0.00 91 1010.8
20180815113818 62 23 5.0 6.0 0.00 0.00 0.00 91 1010.8
20180815112816 62 21 5.0 8.0 0.00 0.00 0.00 91 1010.8
20180815111816 62 9 6.0 7.0 0.00 0.00 0.00 91 1010.8
20180815110815 62 5 6.0 7.0 0.00 0.00 0.00 90 1010.8
20180815105814 63 6 5.0 6.0 0.00 0.00 0.00 89 1011.2
20180815104813 63 0 4.0 5.0 0.00 0.00 0.00 89 1010.8
20180815103813 63 0 1.0 4.0 0.00 0.00 0.00 89 1010.8
20180815102812 64 0 3.0 5.0 0.00 0.00 0.00 88 1010.8
20180815101811 64 0 4.0 6.0 0.00 0.00 0.00 88 1010.8
20180815100810 65 0 2.0 2.0 0.00 0.00 0.00 89 1010.8
20180815095809 65 0 3.0 5.0 0.00 0.00 0.00 89 1010.8
20180815094808 65 350 2.0 4.0 0.00 0.00 0.00 89 1010.8
20180815093807 65 350 3.0 4.0 0.00 0.00 0.00 89 1010.8
20180815092806 65 0 2.0 4.0 0.00 0.00 0.00 89 1010.8
20180815091808 65 0 3.0 5.0 0.00 0.00 0.00 89 1010.8
20180815091132 65 0 4.0 6.0 0.00 0.00 0.00 89 1010.8
20180815090131 65 11 4.0 6.0 0.00 0.00 0.00 89 1010.5
20180815085131 65 359 4.0 9.0 0.00 0.00 0.00 89 1010.5
20180815084130 65 19 8.0 10.0 0.00 0.00 0.00 89 1010.5
20180815083129 65 12 7.0 8.0 0.00 0.00 0.00 90 1010.5
20180815082128 65 19 6.0 9.0 0.00 0.00 0.00 90 1010.8
20180815081127 65 20 7.0 9.0 0.00 0.00 0.00 90 1010.8
20180815080126 66 357 5.0 7.0 0.00 0.00 0.00 90 1010.8
20180815075125 66 357 6.0 7.0 0.00 0.00 0.00 90 1010.8
20180815074124 66 0 3.0 4.0 0.00 0.00 0.00 90 1010.5
20180815073123 66 355 2.0 6.0 0.00 0.00 0.00 90 1010.5
20180815072122 66 351 5.0 6.0 0.00 0.00 0.00 90 1010.8
20180815071121 66 339 2.0 4.0 0.00 0.00 0.00 90 1010.8
20180815070120 66 335 4.0 6.0 0.00 0.00 0.00 90 1010.8
20180815065119 66 334 4.0 6.0 0.00 0.00 0.00 90 1010.8
20180815064118 66 327 2.0 5.0 0.00 0.00 0.00 90 1010.8
20180815063117 66 344 2.0 5.0 0.00 0.00 0.00 91 1010.5
20180815062116 65 31 2.0 4.0 0.00 0.00 0.00 90 1010.8
20180815061116 65 31 1.0 2.0 0.00 0.00 0.00 90 1010.8
20180815060114 65 31 1.0 2.0 0.00 0.00 0.00 90 1010.8
20180815055114 65 31 1.0 2.0 0.00 0.00 0.00 90 1011.2
20180815054113 65 31 2.0 2.0 0.00 0.00 0.00 89 1010.8
20180815053112 65 31 1.0 1.0 0.00 0.00 0.00 89 1010.8
20180815052111 66 31 0.0 1.0 0.00 0.00 0.00 88 1010.8
20180815051110 66 31 1.0 4.0 0.00 0.00 0.00 87 1010.8
20180815050110 66 27 1.0 2.0 0.00 0.00 0.00 88 1010.5
20180815045108 66 27 2.0 8.0 0.00 0.00 0.00 88 1010.2
20180815044108 66 13 6.0 9.0 0.00 0.00 0.00 88 1010.2
20180815043106 67 26 7.0 9.0 0.00 0.00 0.00 88 1009.8
20180815042106 67 32 5.0 6.0 0.00 0.00 0.00 87 1010.2
20180815041105 67 34 2.0 4.0 0.00 0.00 0.00 87 1010.2
20180815040104 67 34 1.0 7.0 0.00 0.00 0.00 87 1010.2
20180815035103 67 12 6.0 10.0 0.00 0.00 0.00 87 1009.8
20180815034102 68 17 9.0 11.0 0.00 0.00 0.00 87 1009.8
20180815033102 68 359 6.0 8.0 0.00 0.00 0.00 88 1010.5
20180815032100 68 26 6.0 8.0 0.00 0.00 0.00 88 1010.5
20180815031100 68 25 5.0 8.0 0.00 0.00 0.00 88 1010.5
20180815030059 68 19 7.0 9.0 0.00 0.00 0.00 88 1010.8
20180815025058 68 18 6.0 7.0 0.00 0.00 0.00 88 1010.5
20180815024057 68 19 5.0 6.0 0.00 0.00 0.00 87 1010.5
20180815023056 68 18 3.0 7.0 0.00 0.00 0.00 86 1010.2
20180815022055 69 17 5.0 6.0 0.00 0.00 0.00 86 1010.5
20180815021055 69 10 5.0 7.0 0.00 0.00 0.00 85 1010.2
20180815020054 69 357 4.0 6.0 0.00 0.00 0.00 84 1010.5
20180815015053 70 0 5.0 6.0 0.00 0.00 0.00 83 1010.2
20180815014052 70 343 4.0 6.0 0.00 0.00 0.00 82 1010.2
20180815013051 71 349 4.0 5.0 0.00 0.00 0.00 81 1010.2
20180815012050 71 355 4.0 5.0 0.00 0.00 0.00 81 1010.2
20180815011049 72 346 3.0 5.0 0.00 0.00 0.00 79 1010.2
20180815010048 72 350 4.0 7.0 0.00 0.00 0.00 78 1010.2
20180815005047 73 331 5.0 9.0 0.00 0.00 0.00 78 1010.2